| time (UTC) | temp F | wind direction | speed knots | gust knots | rain 1hr in | rain 24hr in | rain mn in | humidity % | barometer mb |
| 20260504130520 | 55 | 0.0 | 0.0 | 0.00 | 0.00 | 0.00 | 52 | 1015.8 | |
| 20260504110520 | 58 | 253 | 0.0 | 1.7 | 0.00 | 0.00 | 0.00 | 45 | 1015.9 |
| 20260504100519 | 56 | 265 | 2.6 | 3.5 | 0.00 | 0.00 | 0.00 | 48 | 1014.7 |
| 20260504081539 | 57 | 272 | 1.7 | 2.6 | 0.00 | 0.00 | 0.00 | 46 | 1014.5 |
| 20260504080519 | 57 | 254 | 1.7 | 2.6 | 0.00 | 0.00 | 0.00 | 46 | 1014.5 |
| 20260504050537 | 67 | 288 | 4.3 | 6.1 | 0.00 | 0.00 | 0.00 | 34 | 1013.9 |
| 20260504045538 | 67 | 283 | 4.3 | 5.2 | 0.00 | 0.00 | 0.00 | 33 | 1013.9 |
| 20260504044536 | 67 | 280 | 3.5 | 4.3 | 0.00 | 0.00 | 0.00 | 33 | 1013.9 |
| 20260504043538 | 67 | 283 | 3.5 | 4.3 | 0.00 | 0.00 | 0.00 | 34 | 1013.9 |
| 20260504042536 | 66 | 280 | 3.5 | 4.3 | 0.00 | 0.00 | 0.00 | 36 | 1013.7 |
| 20260504041538 | 67 | 280 | 3.5 | 4.3 | 0.00 | 0.00 | 0.00 | 36 | 1013.8 |
| 20260504040536 | 67 | 282 | 3.5 | 4.3 | 0.00 | 0.00 | 0.00 | 35 | 1013.5 |
| 20260504035538 | 66 | 278 | 2.6 | 3.5 | 0.00 | 0.00 | 0.00 | 36 | 1013.5 |
| 20260504034536 | 66 | 274 | 2.6 | 3.5 | 0.00 | 0.00 | 0.00 | 38 | 1013.5 |
| 20260504033535 | 66 | 270 | 1.7 | 2.6 | 0.00 | 0.00 | 0.00 | 41 | 1013.5 |
| 20260504032535 | 67 | 276 | 1.7 | 2.6 | 0.00 | 0.00 | 0.00 | 42 | 1013.3 |
| 20260504031555 | 68 | 255 | 1.7 | 2.6 | 0.00 | 0.00 | 0.00 | 42 | 1013.5 |
| 20260504030535 | 69 | 260 | 0.9 | 2.6 | 0.00 | 0.00 | 0.00 | 41 | 1013.5 |
| 20260504025535 | 70 | 260 | 0.9 | 2.6 | 0.00 | 0.00 | 0.00 | 40 | 1012.1 |
| 20260504024535 | 71 | 238 | 0.9 | 2.6 | 0.00 | 0.00 | 0.00 | 39 | 1012.1 |
| 20260504023535 | 72 | 250 | 1.7 | 1.7 | 0.00 | 0.00 | 0.00 | 38 | 1012.2 |
| 20260504022535 | 73 | 248 | 0.0 | 2.6 | 0.00 | 0.00 | 0.00 | 38 | 1012.0 |
| 20260504021535 | 74 | 0.0 | 0.0 | 0.00 | 0.00 | 0.00 | 35 | 1012.0 | |
| 20260504020535 | 75 | 0.0 | 0.0 | 0.00 | 0.00 | 0.00 | 34 | 1013.2 | |
| 20260504015535 | 76 | 0.0 | 0.0 | 0.00 | 0.00 | 0.00 | 33 | 1013.2 | |
| 20260504014535 | 77 | 0.0 | 0.0 | 0.00 | 0.00 | 0.00 | 31 | 1013.2 | |
| 20260504013535 | 77 | 172 | 0.0 | 1.7 | 0.00 | 0.00 | 0.00 | 30 | 1013.2 |
| 20260504012535 | 78 | 156 | 0.9 | 2.6 | 0.00 | 0.00 | 0.00 | 29 | 1013.3 |
| 20260504011535 | 79 | 174 | 0.9 | 2.6 | 0.00 | 0.00 | 0.00 | 28 | 1013.3 |
| 20260504010555 | 79 | 157 | 1.7 | 3.5 | 0.00 | 0.00 | 0.00 | 27 | 1013.3 |
| 20260504005535 | 80 | 175 | 0.9 | 2.6 | 0.00 | 0.00 | 0.00 | 26 | 1013.5 |
| 20260504004535 | 81 | 154 | 2.6 | 3.5 | 0.00 | 0.00 | 0.00 | 25 | 1013.6 |
| 20260504003535 | 81 | 142 | 2.6 | 4.3 | 0.00 | 0.00 | 0.00 | 26 | 1013.7 |
| 20260504002535 | 82 | 158 | 0.0 | 1.7 | 0.00 | 0.00 | 0.00 | 24 | 1013.8 |
| 20260504001535 | 82 | 155 | 1.7 | 3.5 | 0.00 | 0.00 | 0.00 | 24 | 1013.8 |
| 20260504000554 | 82 | 134 | 2.6 | 3.5 | 0.00 | 0.00 | 0.00 | 24 | 1013.8 |
| 20260503235535 | 81 | 150 | 1.7 | 3.5 | 0.00 | 0.00 | 0.00 | 24 | 1014.8 |
| 20260503234534 | 83 | 136 | 3.5 | 4.3 | 0.00 | 0.00 | 0.00 | 24 | 1014.9 |
| 20260503233535 | 82 | 143 | 2.6 | 4.3 | 0.00 | 0.00 | 0.00 | 23 | 1014.9 |
| 20260503232534 | 83 | 149 | 2.6 | 4.3 | 0.00 | 0.00 | 0.00 | 24 | 1015.0 |
| 20260503231555 | 82 | 150 | 1.7 | 4.3 | 0.00 | 0.00 | 0.00 | 23 | 1015.0 |
| 20260503230555 | 83 | 149 | 3.5 | 5.2 | 0.00 | 0.00 | 0.00 | 23 | 1015.0 |
| 20260503225535 | 83 | 156 | 2.6 | 4.3 | 0.00 | 0.00 | 0.00 | 23 | 1015.0 |
| 20260503224534 | 83 | 143 | 2.6 | 5.2 | 0.00 | 0.00 | 0.00 | 23 | 1015.1 |
| 20260503223555 | 83 | 144 | 3.5 | 5.2 | 0.00 | 0.00 | 0.00 | 23 | 1015.1 |
| 20260503222534 | 83 | 166 | 3.5 | 5.2 | 0.00 | 0.00 | 0.00 | 22 | 1015.1 |
| 20260503221534 | 83 | 153 | 3.5 | 5.2 | 0.00 | 0.00 | 0.00 | 23 | 1016.2 |
| 20260503220534 | 83 | 152 | 3.5 | 4.3 | 0.00 | 0.00 | 0.00 | 23 | 1016.3 |
| 20260503215534 | 83 | 157 | 2.6 | 3.5 | 0.00 | 0.00 | 0.00 | 23 | 1016.3 |
| 20260503214534 | 83 | 170 | 2.6 | 4.3 | 0.00 | 0.00 | 0.00 | 24 | 1016.3 |
| 20260503213534 | 82 | 170 | 2.6 | 4.3 | 0.00 | 0.00 | 0.00 | 24 | 1016.4 |
| 20260503212534 | 81 | 165 | 1.7 | 3.5 | 0.00 | 0.00 | 0.00 | 24 | 1016.3 |
| 20260503211534 | 81 | 139 | 3.5 | 4.3 | 0.00 | 0.00 | 0.00 | 24 | 1017.4 |
| 20260503210534 | 81 | 146 | 3.5 | 6.1 | 0.00 | 0.00 | 0.00 | 24 | 1017.5 |
| 20260503205534 | 81 | 147 | 2.6 | 5.2 | 0.00 | 0.00 | 0.00 | 24 | 1017.5 |
| 20260503204534 | 81 | 146 | 2.6 | 4.3 | 0.00 | 0.00 | 0.00 | 23 | 1017.5 |
| 20260503203534 | 81 | 146 | 2.6 | 4.3 | 0.00 | 0.00 | 0.00 | 25 | 1017.5 |
| 20260503202533 | 80 | 146 | 3.5 | 5.2 | 0.00 | 0.00 | 0.00 | 25 | 1017.6 |
| 20260503201534 | 80 | 126 | 1.7 | 2.6 | 0.00 | 0.00 | 0.00 | 26 | 1017.5 |
| 20260503200533 | 79 | 129 | 2.6 | 4.3 | 0.00 | 0.00 | 0.00 | 25 | 1017.5 |
| 20260503195534 | 79 | 155 | 2.6 | 3.5 | 0.00 | 0.00 | 0.00 | 25 | 1018.6 |
| 20260503194533 | 77 | 145 | 2.6 | 3.5 | 0.00 | 0.00 | 0.00 | 27 | 1018.5 |
| 20260503193534 | 76 | 157 | 2.6 | 4.3 | 0.00 | 0.00 | 0.00 | 30 | 1018.6 |
| 20260503192533 | 75 | 145 | 2.6 | 4.3 | 0.00 | 0.00 | 0.00 | 31 | 1018.6 |
| 20260503191534 | 76 | 173 | 2.6 | 5.2 | 0.00 | 0.00 | 0.00 | 32 | 1018.7 |
| 20260503190534 | 74 | 131 | 1.7 | 3.5 | 0.00 | 0.00 | 0.00 | 33 | 1018.7 |
| 20260503185533 | 73 | 142 | 2.6 | 3.5 | 0.00 | 0.00 | 0.00 | 34 | 1018.7 |
| 20260503184533 | 73 | 144 | 2.6 | 3.5 | 0.00 | 0.00 | 0.00 | 35 | 1019.8 |
| 20260503183533 | 73 | 151 | 2.6 | 4.3 | 0.00 | 0.00 | 0.00 | 35 | 1019.8 |
| 20260503182554 | 73 | 150 | 1.7 | 3.5 | 0.00 | 0.00 | 0.00 | 35 | 1019.8 |
| 20260503181534 | 73 | 129 | 2.6 | 4.3 | 0.00 | 0.00 | 0.00 | 36 | 1019.9 |
| 20260503180534 | 72 | 157 | 0.9 | 4.3 | 0.00 | 0.00 | 0.00 | 37 | 1019.9 |
| 20260503175533 | 71 | 155 | 1.7 | 4.3 | 0.00 | 0.00 | 0.00 | 37 | 1019.7 |
| 20260503174533 | 70 | 149 | 2.6 | 3.5 | 0.00 | 0.00 | 0.00 | 37 | 1019.8 |
| 20260503173553 | 69 | 140 | 2.6 | 4.3 | 0.00 | 0.00 | 0.00 | 39 | 1019.8 |
| 20260503172533 | 68 | 158 | 2.6 | 5.2 | 0.00 | 0.00 | 0.00 | 39 | 1019.7 |
| 20260503171533 | 68 | 148 | 2.6 | 3.5 | 0.00 | 0.00 | 0.00 | 41 | 1020.9 |
| 20260503170533 | 67 | 141 | 2.6 | 4.3 | 0.00 | 0.00 | 0.00 | 40 | 1020.8 |
| 20260503150533 | 60 | 146 | 2.6 | 4.3 | 0.00 | 0.00 | 0.00 | 46 | 1020.5 |